Location: Holyhead Bay
(53.3667°N, 4.6667°W)
Time: 19:48:29
(UTC+00:00)

Cosmos 1606 - Pass Details

Date: 24 November 2020
Orbit: 502 x 528 km, 82.5° (Epoch: 17 January)

Event Time Altitude Azimuth Distance (km) Brightness Sun altitude
Rises 18:36:16 0° 200° (SSW) 2,657 6.7 -21.0°
Reaches altitude 10° 18:38:26 10° 204° (SSW) 1,773 5.8 -21.3°
Maximum altitude 18:42:16 58° 284° (WNW) 627 3.3 -21.9°
Enters shadow 18:44:40 22° 358° (N) 1,213 4.5 -22.3°
